Regional Weather Roundup
Issued by NWS Columbia, SC

Home | Current Version | Previous Version | Text Only | Print | Product List | Glossary On
Versions: 1 2 3 4 5 6 7 8 9 10 11 12 13 14 15 16 17 18 19 20 21 22 23 24 25 26 27 28 29 30 31 32 33 34 35 36 37 38 39 40 41 42 43 44 45 46 47 48 49 50
000
ASUS42 KCAE 251210
RWRCAE
REGIONAL WEATHER ROUNDUP
NATIONAL WEATHER SERVICE COLUMBIA SC
800 AM EDT MON SEP 25 2017

NOTE: "FAIR" INDICATES FEW OR NO CLOUDS BELOW 12,000 FEET WITH NO
SIGNIFICANT WEATHER AND/OR OBSTRUCTIONS TO VISIBILITY.

NOT ALL STATIONS ARE QUALITY CONTROLLED BY THE NATIONAL
WEATHER SERVICE. USE DATA WITH CAUTION...ESPECIALLY
DEWPOINT OBSERVATIONS.

SCZ001>056-GAZ040-063>065-077-251300-
...UPSTATE SOUTH CAROLINA...

CITY           SKY/WX    TMP DP  RH WIND       PRES   REMARKS
ANDERSON       CLOUDY    68  61  78 NE6       30.05R
6HR MIN TEMP:  66; 6HR MAX TEMP:  71;

LIBERTY        CLOUDY    60  60 100 NE3       30.06R
6HR MIN TEMP:  60; 6HR MAX TEMP:  65;

SPARTANBURG    PTCLDY    66  59  77 CALM      30.06R
CLEMSON        CLOUDY    68  63  84 N3        30.06R
6HR MIN TEMP:  68; 6HR MAX TEMP:  71;

GREENVILLE     MOCLDY    70  59  68 N7        30.07R
6HR MIN TEMP:  69; 6HR MAX TEMP:  72;

GREENWOOD      CLOUDY    64  63  96 CALM      30.05R
6HR MIN TEMP:  64; 6HR MAX TEMP:  67;

GREER          PTCLDY    68  61  78 N5        30.07R
6HR MIN TEMP:  68; 6HR MAX TEMP:  70;

ROCK HILL        N/A    N/A N/A N/A MISG      30.05R
CHESTER        CLOUDY    64  61  88 N7        30.05R
LAURENS        PTSUNNY   64  61  88 N6        30.04R


...CENTRAL SOUTH CAROLINA...

CITY           SKY/WX    TMP DP  RH WIND       PRES   REMARKS
COLUMBIA APT   MOCLDY    71  61  70 N3        29.99R
6HR MIN TEMP:  71; 6HR MAX TEMP:  75;

COLUMBIA OWENS PTCLDY    70  61  73 CALM      30.00R
6HR MIN TEMP:  69; 6HR MAX TEMP:  74;

MCENTIRE ANGB  MOCLDY    69  60  72 N6        29.99R
6HR MIN TEMP:  65; 6HR MAX TEMP:  72;

ORANGEBURG     CLOUDY    69  61  75 N7        29.98R
6HR MIN TEMP:  69; 6HR MAX TEMP:  72;

SUMTER SHAW    MOCLDY    70  59  67 N9        29.96R
6HR MIN TEMP:  68; 6HR MAX TEMP:  71;

NEWBERRY       CLOUDY    64  63  94 N5        30.06R
AIKEN          FAIR      64  63  94 N3        30.03S
BARNWELL       FAIR      68  66  94 CALM      29.98R
MANNING        FAIR      68  63  83 MISG      29.97R
CAMDEN         FAIR      70  61  73 CALM      30.00R
LANCASTER      CLOUDY    66  64  94 N5        30.03R
WINNSBORO      CLOUDY    63  61  94 N3        30.01S


...EASTERN AND COASTAL SOUTH CAROLINA...

CITY           SKY/WX    TMP DP  RH WIND       PRES   REMARKS
MYRTLE BEACH   CLOUDY    69  66  90 N8        29.94S
6HR MIN TEMP:  69; 6HR MAX TEMP:  74;

N MYRTLE BCH   CLOUDY    70  67  90 N6        29.92S
6HR MIN TEMP:  69; 6HR MAX TEMP:  73;

CONWAY         CLOUDY    66  64  94 N3        29.96R
MARION         FAIR      64  61  88 N3        29.96R
HARTSVILLE     FAIR      66  59  77 N7        29.99R
FLORENCE       MOCLDY    67  60  78 N9        29.98R
6HR MIN TEMP:  67; 6HR MAX TEMP:  72;

DARLINGTON     PTCLDY    66  62  87 N7        29.99R
6HR MIN TEMP:  64; 6HR MAX TEMP:  69;

CHARLESTON APT CLOUDY    70  65  84 N8        29.94R
6HR MIN TEMP:  69; 6HR MAX TEMP:  72;

MOUNT PLEASANT PTSUNNY   70  66  88 CALM      29.94R
WALTERBORO     CLOUDY    68  64  88 CALM      29.96S
BEAUFORT       CLOUDY    71  69  93 N8        29.94R
6HR MIN TEMP:  71; 6HR MAX TEMP:  75;



...EASTERN GEORGIA...

CITY           SKY/WX    TMP DP  RH WIND       PRES   REMARKS
AUGUSTA BUSH F PTCLDY    69  66  90 N5        29.98S
6HR MIN TEMP:  67; 6HR MAX TEMP:  72;

AUGUSTA DANIEL CLOUDY    70  65  84 MISG      30.00S
6HR MIN TEMP:  70; 6HR MAX TEMP:  74;

THOMSON        PTCLDY    65  64  95 CALM      30.06R
6HR MIN TEMP:  64; 6HR MAX TEMP:  68;

CLAXTON        FAIR      68  67  98 CALM      29.96R FOG
6HR MIN TEMP:  68; 6HR MAX TEMP:  71;

SYLVANIA       CLOUDY    70  68  95 NE8       29.97R
6HR MIN TEMP:  68; 6HR MAX TEMP:  72;

STATESBORO     CLOUDY    69  68  96 CALM      29.96R
6HR MIN TEMP:  68; 6HR MAX TEMP:  72;

SAVANNAH       CLOUDY    70  68  93 N6        29.95R
6HR MIN TEMP:  69; 6HR MAX TEMP:  73;



...SOUTHERN NORTH CAROLINA...

CITY           SKY/WX    TMP DP  RH WIND       PRES   REMARKS
CHARLOTTE      CLOUDY    66  64  93 NW5       30.06R
6HR MIN TEMP:  65; 6HR MAX TEMP:  69;

MONROE         CLOUDY    67  62  84 N7        30.03R
6HR MIN TEMP:  65; 6HR MAX TEMP:  69;

WADESBORO      PTSUNNY   61  58  90 CALM      30.01R
RUTHERFORDTON  PTCLDY    65  61  86 CALM      30.09R
ASHEVILLE      PTCLDY    60  57  89 CALM      30.14R
6HR MIN TEMP:  58; 6HR MAX TEMP:  62;


$$



USA.gov is the U.S. government's official web portal to all federal, state and local government web resources and services.